This demonstration page uses our WeatherBlox Daily Observations layout. Learn more.

Left ArrowRight Arrow

40.92945, -100.16068

Hourly Observations for December 7, 2020

Temp ( °F °C ) Dew Point ( °F °C ) Humidity (%) Winds ( mph kmh ) Pressure ( in mb ) Visibility ( mi km ) Precip ( " mm )
12:15 am 00:15 Clear 24 -4.4 19 -7.3 80 80 NW 7 11 30.3 1026 10 16.0934 0 0
12:35 am 00:35 Clear 25 -3.8 19 -7 79 79 WNW 6 9 30.29 1026 10 16.0934 0 0
12:55 am 00:55 Clear 25 -4 19 -7 80 80 WNW 3 6 30.29 1026 10 16.0934 0 0
1:15 am 01:15 Clear 25 -4.1 19 -7.1 80 80 WNW 6 9 30.28 1025 10 16.0934 0 0
1:35 am 01:35 Clear 28 -2.5 20 -6.5 74 74 WNW 9 15 30.26 1025 10 16.0934 0 0
1:55 am 01:55 Clear 27 -2.8 20 -6.7 75 75 WNW 8 13 30.28 1025 10 16.0934 0 0
2:15 am 02:15 Clear 27 -3 20 -6.8 75 75 WNW 9 15 30.28 1025 10 16.0934 0 0
2:35 am 02:35 Clear 27 -2.7 20 -6.6 75 75 WNW 12 19 30.27 1025 10 16.0934 0 0
2:55 am 02:55 Clear 29 -1.5 21 -6.1 71 71 WNW 10 17 30.26 1025 10 16.0934 0 0
3:15 am 03:15 Clear 29 -1.6 21 -6.1 72 72 WNW 12 19 30.26 1025 10 16.0934 0 0
3:35 am 03:35 Clear 30 -1 21 -6 69 69 WNW 16 26 30.27 1025 10 16.0934 0 0
3:55 am 03:55 Clear 30 -1.3 21 -6.2 70 70 WNW 13 20 30.27 1025 10 16.0934 0 0
4:15 am 04:15 Clear 29 -1.6 21 -6.3 71 71 WNW 13 20 30.27 1025 10 16.0934 0 0
4:35 am 04:35 Clear 29 -1.9 21 -6.3 72 72 WNW 10 17 30.28 1025 10 16.0934 0 0
4:55 am 04:55 Clear 29 -1.6 21 -6.3 71 71 WNW 10 17 30.27 1025 10 16.0934 0 0
5:15 am 05:15 Clear 30 -1 20 -6.5 67 67 WNW 12 19 30.27 1025 10 16.0934 0 0
5:35 am 05:35 Clear 29 -1.4 20 -6.5 69 69 W 9 15 30.27 1025 10 16.0934 0 0
5:55 am 05:55 Clear 28 -2 20 -6.5 72 72 W 12 19 30.28 1025 10 16.0934 0 0
6:15 am 06:15 Clear 30 -1.2 20 -6.7 67 67 WNW 12 19 30.28 1025 10 16.0934 0 0
6:35 am 06:35 Clear 29 -1.6 20 -6.8 68 68 WNW 14 22 30.28 1026 10 16.0934 0 0
6:55 am 06:55 Clear 29 -1.4 19 -7 66 66 WNW 14 22 30.29 1026 10 16.0934 0 0
7:15 am 07:15 Clear 30 -1.3 19 -7 66 66 WNW 9 15 30.3 1026 10 16.0934 0 0
7:35 am 07:35 Clear 29 -1.9 19 -7.1 68 68 WNW 13 20 30.3 1026 10 16.0934 0 0
7:55 am 07:55 Sunny 30 -1.1 19 -7 65 65 WNW 13 20 30.29 1026 10 16.0934 0 0
8:15 am 08:15 Sunny 30 -1 19 -7 64 64 WNW 10 17 30.3 1026 10 16.0934 0 0
8:35 am 08:35 Sunny 30 -1 19 -7 64 64 WNW 10 17 30.3 1026 10 16.0934 0 0
8:55 am 08:55 Sunny 32 0 20 -6.6 62 62 WNW 14 22 30.3 1026 10 16.0934 0 0
9:15 am 09:15 Sunny 33 0.5 20 -6.5 60 60 WNW 13 20 30.29 1026 10 16.0934 0 0
9:35 am 09:35 Sunny 35 1.4 20 -6.5 56 56 WNW 16 26 30.28 1026 10 16.0934 0 0
9:55 am 09:55 Sunny 36 2.2 20 -6.4 53 53 WNW 15 24 30.28 1025 10 16.0934 0 0
10:15 am 10:15 Sunny 38 3.6 20 -6.5 48 48 WNW 17 28 30.27 1025 10 16.0934 0 0
10:35 am 10:35 Sunny 41 5.2 21 -6.1 44 44 WNW 15 24 30.25 1024 10 16.0934 0 0
10:55 am 10:55 Sunny 43 6.3 21 -6.3 40 40 WNW 15 24 30.24 1024 10 16.0934 0 0
11:15 am 11:15 Sunny 46 7.8 21 -6.2 37 37 WNW 14 22 30.22 1023 10 16.0934 0 0
11:35 am 11:35 Sunny 48 9.1 21 -6.3 33 33 WNW 13 20 30.21 1023 10 16.0934 0 0
11:55 am 11:55 Sunny 51 10.4 21 -6 31 31 WNW 14 22 30.19 1022 10 16.0934 0 0
12:15 pm 12:15 Sunny 53 11.9 22 -5.8 29 29 NW 9 15 30.16 1021 10 16.0934 0 0
12:35 pm 12:35 Sunny 57 13.7 20 -6.4 24 24 W 12 19 30.14 1021 10 16.0934 0 0
12:55 pm 12:55 Sunny 56 13.2 21 -6.3 25 25 WNW 13 20 30.14 1021 10 16.0934 0 0
1:15 pm 13:15 Sunny 56 13.6 20 -6.5 24 24 WNW 12 19 30.13 1020 10 16.0934 0 0
1:35 pm 13:35 Sunny 58 14.4 20 -6.8 23 23 WNW 14 22 30.11 1020 10 16.0934 0 0
1:55 pm 13:55 Sunny 62 16.8 15 -9.2 16 16 NNW 21 33 30.09 1019 10 16.0934 0 0
2:15 pm 14:15 Sunny 63 17 15 -9.2 16 16 NNW 21 33 30.08 1019 10 16.0934 0 0
2:35 pm 14:35 Sunny 63 17.2 15 -9.7 15 15 NNW 21 33 30.08 1018 10 16.0934 0 0
2:55 pm 14:55 Sunny 63 17.2 15 -9.6 15 15 NW 18 30 30.07 1018 10 16.0934 0 0
3:15 pm 15:15 Sunny 63 17.1 14 -10 15 15 NW 20 31 30.07 1018 10 16.0934 0 0
3:35 pm 15:35 Sunny 63 17 14 -10.2 15 15 NNW 17 28 30.07 1018 10 16.0934 0 0
3:55 pm 15:55 Sunny 62 16.5 14 -10 15 15 NNW 16 26 30.06 1018 10 16.0934 0 0
4:15 pm 16:15 Sunny 60 15.7 15 -9.5 17 17 NNW 12 19 30.07 1018 10 16.0934 0 0
4:35 pm 16:35 Sunny 58 14.3 15 -9.2 19 19 NNW 10 17 30.08 1019 10 16.0934 0 0
4:55 pm 16:55 Sunny 53 11.5 15 -9.2 23 23 NNW 10 17 30.12 1020 10 16.0934 0 0
5:15 pm 17:15 Clear 47 8.6 15 -9.5 27 27 NNW 9 15 30.14 1021 7 11.26538 0 0
5:35 pm 17:35 Clear 42 5.3 15 -9.7 33 33 NNW 7 11 30.19 1022 7 11.26538 0 0
5:55 pm 17:55 Clear 40 4.4 14 -9.8 35 35 NW 9 15 30.2 1023 10 16.0934 0 0
6:15 pm 18:15 Clear 40 4.5 14 -9.9 35 35 NW 5 7 30.2 1023 10 16.0934 0 0
6:35 pm 18:35 Hazy 34 1.3 14 -9.9 43 43 WNW 6 9 30.23 1024 5 8.0467 0 0
6:55 pm 18:55 Clear 35 1.6 15 -9.7 43 43 WNW 7 11 30.22 1023 7 11.26538 0 0
7:15 pm 19:15 Clear 35 1.9 15 -9.6 43 43 WNW 8 13 30.23 1024 7 11.26538 0 0
7:35 pm 19:35 Clear 33 0.3 14 -9.8 47 47 WNW 10 17 30.25 1025 10 16.0934 0 0
7:55 pm 19:55 Clear 34 1.2 15 -9.5 45 45 WNW 12 19 30.26 1025 10 16.0934 0 0
8:15 pm 20:15 Clear 34 0.9 16 -9 48 48 WNW 13 20 30.27 1025 10 16.0934 0 0
8:35 pm 20:35 Clear 35 1.4 16 -8.9 47 47 WNW 13 20 30.26 1025 10 16.0934 0 0
8:55 pm 20:55 Clear 35 1.8 16 -8.7 46 46 WNW 14 22 30.26 1025 10 16.0934 0 0
9:15 pm 21:15 Clear 33 0.5 16 -8.7 51 51 WNW 12 19 30.27 1025 10 16.0934 0 0
9:35 pm 21:35 Clear 32 0 16 -8.9 52 52 NW 8 13 30.28 1025 10 16.0934 0 0
9:55 pm 21:55 Clear 32 0 16 -9 51 51 WNW 9 15 30.28 1025 10 16.0934 0 0
10:15 pm 22:15 Clear 31 -0.3 16 -9 52 52 WNW 9 15 30.28 1025 10 16.0934 0 0
10:35 pm 22:35 Clear 31 -0.5 16 -8.8 54 54 NW 3 6 30.28 1025 10 16.0934 0 0
10:55 pm 22:55 Clear 31 -0.6 16 -9.1 53 53 Calm 30.29 1026 10 16.0934 0 0
11:15 pm 23:15 Clear 29 -1.7 15 -9.3 57 57 W 10 17 30.3 1026 10 16.0934 0 0
11:55 pm 23:55 Clear 28 -2.3 15 -9.3 59 59 WNW 9 15 30.31 1026 10 16.0934 0 0

Powered by AerisWeather